Regional Weather Roundup
Issued by NWS

Home | Current Version | Previous Version | Text Only | Print | Product List | Glossary Off
Versions: 1 2 3 4 5 6 7 8 9 10 11 12 13 14 15 16 17 18 19 20 21 22 23 24 25 26 27 28 29 30 31 32 33 34 35 36 37 38 39 40 41 42 43 44 45 46 47 48 49 50

000
ASUS45 KTFX 270619
RWRMT
MONTANA HOURLY WEATHER ROUNDUP
NATIONAL WEATHER SERVICE GREAT FALLS MT
1219 AM MDT WED AUG 27 2014

NOTE: "FAIR" INDICATES FEW OR NO CLOUDS BELOW 12000 FEET WITH NO
SIGNIFICANT WEATHER AND/OR OBSTRUCTIONS TO VISIBILITY.

* THESE STATIONS ARE NOT UNDER NWS QUALITY CONTROL. THEY DO NOT
   REPORT WEATHER SUCH AS PRECIPITATION OR FOG.

MTZ001>007-043-270700-
WEST OF THE DIVIDE
CITY           SKY/WX    TMP DP  RH WIND       PRES   REMARKS
KALISPELL      CLEAR     52  48  86 CALM      30.06S
MISSOULA       CLEAR     61  45  56 E3        30.11S
BUTTE          CLEAR     50  45  83 SE6       30.22F
MULLAN PASS    CLEAR     57  39  51 VRB3      30.23F
* LINCOLN      N/A       47  44  89 SE1        N/A
* LOOKOUT PASS N/A       55  44  67 N/A        N/A
* POLSON       N/A       59  45  60 SE2        N/A
* RONAN APT    CLEAR     52  45  77 N/A        N/A
* SEELEY LAKE  N/A       48  43  83 N/A        N/A
* THOMP F APT  CLEAR     49  38  66 N5G10      N/A
$$

MTZ008-052>055-270700-
SOUTHWEST MONTANA
CITY           SKY/WX    TMP DP  RH WIND       PRES   REMARKS
BOZEMAN        CLEAR     54  48  80 CALM      30.15S
DILLON         CLEAR     52  45  77 SW12      30.19R
W YELLOWSTONE  CLEAR     39  37  93 CALM      30.30R
* THREE FORKS  CLEAR     55  34  45 N/A        N/A
* BOULDER HILL N/A       56  37  49 SW4        N/A
* MONIDA PASS  N/A       50  38  64 E2         N/A
* RAYNOLDS PAS N/A       47  29  50 S4         N/A
* WHITEHALL    N/A       56  47  72 VRB4       N/A
* WISE RIVER   N/A       51  43  74 S4         N/A
$$

MTZ009>010-012-014-046-048-049-054-270700-
EAST SLOPES AND CENTRAL MONTANA
CITY           SKY/WX    TMP DP  RH WIND       PRES   REMARKS
CUT BANK       CLEAR     57  45  64 W5        30.06F
GREAT FALLS    CLEAR     61  45  56 SW10      30.06S
HELENA         CLEAR     59  46  62 E3        30.11S
MALMSTROM AFB  CLEAR     61  45  56 SW12      30.07S
* CONRAD       CLEAR     54  50  86 N/A        N/A
* EAST GLACIER N/A       58  43  58 W9         N/A
* MONARCH      N/A       50  39  66 S11        N/A
* PENDROY      N/A       63  41  45 W12        N/A
* SAINT MARY   N/A       62  43  50 SE6G12     N/A
* SWEET GRASS  N/A       65  45  49 SW13       N/A
* WHITE SULPH  N/A       52  43  72 E9         N/A
$$

MTZ011-013-016-021-035-040-045-047-050-051-270700-
NORTH CENTRAL MONTANA
CITY           SKY/WX    TMP DP  RH WIND       PRES   REMARKS
HAVRE          CLEAR     57  46  67 W3        30.02S
LEWISTOWN      CLEAR     55  46  72 SE8       30.13R
* FORT BENTON  CLEAR     63  45  52 CALM      30.04S
* CHESTER      N/A       60  45  58 N/A        N/A
* DENTON       N/A       56  48  75 SE9        N/A
* GEYSER       N/A       52  43  72 SW8        N/A
* JUDITH GAP   N/A       52  45  77 S3         N/A
* LOMA         N/A       61  47  60 NE8        N/A
$$

MTZ017>020-022>027-061-062-270700-
NORTHEAST MONTANA
CITY           SKY/WX    TMP DP  RH WIND       PRES   REMARKS
GLASGOW        CLEAR     57  50  78 E10       30.06F
GLENDIVE       CLEAR     57  52  83 S8        30.14S
JORDAN         CLEAR     57  52  83 CALM      30.09S
SIDNEY         CLEAR     54  50  86 CALM      30.13S
WOLF POINT     CLEAR     55  50  83 NE3       30.09S
* BEAVER HILL  N/A       55  53  93 SE11       N/A
* CIRCLE       N/A       59  51  75 N/A        N/A
* LINDSAY DVD  N/A       53  48  83 S2         N/A
* NAVAJO       N/A       55  47  75 SW8        N/A
$$

MTZ028>042-056>058-270700-
SOUTHCENTRAL AND SOUTHEAST MONTANA
CITY           SKY/WX    TMP DP  RH WIND       PRES   REMARKS
BAKER          CLEAR     55  54  96 SE9       30.18R
BILLINGS       CLEAR     66  46  49 S5        30.11F
LIVINGSTON     CLEAR     55  45  69 NW3       30.16R
MILES CITY     CLEAR     61  52  72 SE9       30.11S
* LAUREL APT   CLEAR     61  46  58 N/A        N/A
* ROUNDUP APT  CLEAR     63  48  58 N/A        N/A
* ALZADA       N/A       58  55  90 E6         N/A
* LAME DEER    N/A       61  44  54 SE6        N/A
* REED POINT   N/A       56  51  83 N/A        N/A
* ROSCOE HILL  N/A       61  37  41 S8         N/A
$$

REGIONAL REPORTS...DAKOTAS
CITY           SKY/WX    TMP DP  RH WIND       PRES   REMARKS
WILLISTON      CLEAR     50  46  86 CALM      30.12S
DICKINSON      CLEAR     52  50  93 S8        30.16F
BEACH          N/A       54  54 100 SE7       30.16S
CROSBY         CLEAR     54  54 100 S8        30.12S
TIOGA          CLEAR     54  54 100 S9        30.17S
WATFORD CITY   CLEAR     54  52  93 CALM      30.13R
BISMARCK       CLOUDY    55  54  96 E3        30.19S
GRAND FORKS    CLEAR     54  52  93 SW6       30.16R
FARGO          MOCLDY    57  55  93 CALM      30.18F
BUFFALO SD     CLEAR     54  52  93 NE7       30.12S
RAPID CITY     MOCLDY    61  54  78 N3        30.17S
$$

REGIONAL REPORTS...WYOMING/IDAHO/WASHINGTON
CITY           SKY/WX    TMP DP  RH WIND       PRES   REMARKS
GILLETTE       PTCLDY    54  50  86 SW5       30.20R
SHERIDAN       CLEAR     55  48  77 S5        30.17S
CODY           PTCLDY    57  48  72 S3        30.19F
YELLOWSTONE LA PTCLDY    37  36  96 NW3       30.39R
SALMON         CLEAR     55  48  77 NW5       30.15R
MULLAN PASS    CLEAR     57  39  51 VRB3      30.23S
SAND POINT     CLEAR     54  54 100 CALM      30.04R
SPOKANE        CLEAR     70  45  41 SW9       30.03S
$$

REGIONAL REPORTS...ALBERTA
CITY           SKY/WX    TMP DP  RH WIND       PRES   REMARKS
CALGARY        FAIR      66  46  49 NW5       29.96S
LETHBRIDGE     CLEAR     59  50  72 SW13      29.98S
MEDICINE HAT   CLEAR     64  45  50 SW10      29.95S
EDMONTON       PTCLDY    55  48  77 S7        29.86F
WATERTON GATE  N/A       61  45  56 SW12       N/A
CARDSTON       N/A       59  48  67 SW7        N/A
$$

REGIONAL REPORTS...SASKATCHEWAN
CITY           SKY/WX    TMP DP  RH WIND       PRES   REMARKS
SWIFT CURRENT  CLEAR     59  48  67 S14G21    30.00F
REGINA         N/A       54  48  80 SE9       30.05S
VAL MARIE      N/A       55  50  83 SW3        N/A
ASSINIBOIA     N/A       54  48  80 S7         N/A
CORONACH       N/A       52  46  80 SE5        N/A

$$



USA.gov is the U.S. government's official web portal to all federal, state and local government web resources and services.